TITAN 3C TRANSTAGE DEB, 2799

Orbit data source: Space-Track

TITAN 3C TRANSTAGE DEB, 2799 is space debris in LEO originally from a launch on Fri, 15 Oct 1965 UTC launched from the Air Force Eastern Test Range (AFETR). Debris objects in space refer to the collection of defunct objects orbiting the Earth. Examples of debris include non-operational satellites, rocket bodies, and fragments generated from explosions, collisions, or faulty payload assembly.

Loading next visibility...
Identifier
2799, 1965-082KX
Orbit
LEO
Country
Flag of USUS
Related business
Manufacturer
Unknown
Mission
Spacecraft
Bus & Motor
Unknown
Mass
Unknown
Launch date (UTC)
1965-10-15 (61 years ago)
Launch vehicle
Unknown
Launch site
Air Force Eastern Test Range (AFETR)
Object type
Payload
Rocket body
Debris
Shape & HBR
Unknown shape, 0.1 m
Radar Cross Section
Small (<0.1 m²)

Expand to show TLE details & history
Last TLE update: 21 hours ago

TLE from 21 hours ago
0 TITAN 3C TRANSTAGE DEB
1 02799U 65082KX  26236.38215990  .00000962  00000-0  13488-3 0  9998
2 02799  32.0562 292.3592 0033065 187.5391 267.0375 14.74278064166220
Epoch: 2026-08-24T09:10Z
TLE epoch observation values (Epoch: 2026-08-24T09:10:18.615Z)
Latitude
32.09961°
Longitude
-82.92866°
Altitude
648.53 km
Speed
7.538 km/s
True Right ascension
01h 49m 15s
True Declination
31° 56' 33"
Sunlit
Object was in daylight at epoch
Visualization orbit readout
Latitude
Unknown
Longitude
Unknown
Altitude
Unknown
Speed
Unknown
Apparent Right ascension
Unknown
Apparent Declination
Unknown
Sunlit
N/A
Visualization observer readout
Local Sidereal Time
21:11:31
Azimuth
Unknown
Elevation
Unknown
Doppler factor
Unknown
Orbital elements
Apogee altitude
674.312 km
Perigee altitude
627.828 km
Semi-major axis
7,029.207 km
Eccentricity
0.00331
Inclination
32.0562°
RAAN
292.3592°
Arg. of periapsis
187.5391°
True anomaly
266.65919°
Mean anomaly
267.0375°
Eccentric anomaly
266.84834°
Mean motion
3.68285 °/min
Orbital period
97.75 mins
BSTAR
0.00013488

Documentation

Showing up to 5 results
|